Hourly Data Report for October 11, 2020

SHEARWATER RCS
NOVA SCOTIA
Current Station Operator: ECCC - MSC

44°37'47.000" N
63°30'48.000" W
24.00 m
8205092
71264
AAW

Download Data

Hourly Data (October 2020)
Hourly Data Report for October 11, 2020
TIME Temp Definition
°C
Dew Point Definition
°C
Rel Hum Definition
%
Wind Dir Definition
10's deg

Wind Spd Definition
km/h
Visibility Definition
km
Stn Press Definition
kPa
Hmdx Definition


Wind Chill Definition


Weather Definition


00:00 16.0 13.7 86 21 37   100.39     LegendNANA
01:00 15.9 13.7 87 21 46   100.34     LegendNANA
02:00 15.7 13.7 88 21 35   100.34     LegendNANA
03:00 15.4 13.7 90 22 28   100.37     LegendNANA
04:00 15.2 13.6 90 21 27   100.34     LegendNANA
05:00 14.7 13.7 94 23 18   100.43     LegendNANA
06:00 14.3 13.4 95 24 13   100.51     LegendNANA
07:00 14.3 11.2 82 30 21   100.69     LegendNANA
08:00 13.3 8.4 72 31 24   100.90     LegendNANA
09:00 12.6 8.4 76 30 16   101.00     LegendNANA
10:00 14.2 7.7 65 31 17   101.12     LegendNANA
11:00 12.4 6.0 65 32 22   101.20     LegendNANA
12:00 12.6 3.8 55 32 20   101.28     LegendNANA
13:00 12.3 2.6 51 32 22   101.39     LegendNANA
14:00 12.5 3.0 52 33 18   101.46     LegendNANA
15:00 11.7 2.5 53 32 15   101.61     LegendNANA
16:00 10.5 0.9 51 32 20   101.71     LegendNANA
17:00 9.1 1.7 60 35 15   101.81     LegendNANA
18:00 6.9 0.9 65 35 16   101.90     LegendNANA
19:00 5.6 -0.3 66 36 7   102.05     LegendNANA
20:00 4.9 -0.2 70 1 6   102.16     LegendNANA
21:00 4.0 -0.5 72 35 5   102.24     LegendNANA
22:00 2.5 -0.4 81 33 3   102.30     LegendNANA
23:00 2.3 -1.0 79 33 4   102.33     LegendNANA

Notes on Data Quality.

Legend

  • E = Estimated
  • M = Missing
  • NA = Not Available*
  • [empty] = Indicates an unobserved value
Date modified: